Wind_Speed
58 56 54 52 50 47 45 42 39 37 35 33 30 28 27 25 24 22 21 20 19 20 20 21 21 20 20 20 19 19 19 17 16 14 13 11 9 11 15 18 18 23 23 22 20 18 17
58 58 56 54 53 50 48 45 43 41 39 37 34 32 30 28 25 24 23 21 21 21 21 22 23 22 23 23 24 23 23 22 21 18 16 14 10 9 11 14 15 17 19 20 18 17 15
60 60 59 57 55 53 52 50 48 45 42 40 37 35 33 31 28 27 26 23 23 24 24 22 23 23 23 22 22 20 16 16 18 19 19 17 15 11 10 11 12 16 14 13 11 8 14
61 62 61 59 59 57 55 52 51 48 46 43 40 38 37 35 33 32 30 27 24 23 23 23 20 19 20 17 17 19 16 13 13 15 19 18 17 13 12 9 10 11 9 8 12 14 18
56 61 62 62 62 62 59 57 55 53 50 48 45 43 42 40 38 36 34 31 28 25 23 22 20 18 19 15 14 15 16 15 14 13 15 19 19 15 13 11 8 8 9 12 16 16 12
58 57 59 62 62 62 64 62 59 57 54 53 51 49 47 44 41 39 36 33 30 29 27 24 23 20 18 16 15 15 18 17 16 15 14 15 18 17 16 15 16 14 14 16 15 12 10
59 60 61 59 60 62 63 63 62 60 59 56 54 52 50 47 44 41 40 37 34 31 29 26 24 22 21 22 21 19 19 20 20 18 16 15 18 20 22 20 19 19 18 19 18 11 10
62 63 63 63 62 62 63 64 63 62 60 59 58 56 52 49 47 46 45 44 40 34 32 31 29 26 25 26 27 24 21 22 23 20 18 18 19 20 24 25 26 23 22 22 22 19 17
61 64 65 66 65 64 62 64 64 64 63 63 62 59 56 53 51 52 51 48 44 40 37 36 32 30 29 28 29 26 22 22 24 23 22 23 21 21 23 26 28 28 29 28 27 27 28
59 61 64 66 67 67 66 64 64 64 64 64 63 62 61 57 56 57 55 52 48 46 43 41 38 35 34 31 29 30 28 25 26 24 26 28 24 24 25 27 30 32 30 30 23 29 28
60 60 62 64 66 68 68 68 67 66 65 64 64 63 62 59 59 59 59 56 51 50 47 45 43 41 40 36 35 34 31 29 28 25 25 28 29 29 29 29 27 28 31 34 33 33 31
59 61 62 62 64 67 68 69 69 69 68 67 65 64 64 61 60 60 60 57 56 54 51 50 48 46 44 41 38 37 35 34 32 32 31 30 32 30 29 31 29 28 26 27 31 35 33
55 58 60 62 64 65 66 68 70 70 70 70 69 68 67 65 64 64 62 58 55 53 53 51 50 50 49 46 43 42 40 40 37 38 39 32 34 34 31 31 29 31 29 27 27 28 29
54 55 57 59 61 63 65 68 69 69 70 71 73 72 70 69 68 68 66 62 58 58 56 54 54 53 53 50 47 47 45 44 42 43 44 38 37 37 35 34 29 30 30 30 30 28 27
57 57 57 57 58 61 63 65 66 68 70 71 72 72 70 71 71 71 69 66 65 65 63 61 59 57 57 55 54 53 50 50 47 46 45 42 40 40 38 34 32 32 31 33 31 31 32
61 61 60 61 61 61 61 62 63 64 66 68 70 70 69 72 71 70 69 68 69 71 69 67 66 64 63 60 59 57 55 52 51 50 48 45 43 40 41 39 35 37 34 34 35 33 34
63 64 64 64 64 64 64 64 63 63 63 64 65 66 66 68 68 67 65 68 71 72 70 69 68 66 65 64 62 60 57 58 55 52 50 50 47 44 45 43 40 40 39 37 37 37 38
68 68 68 68 68 68 68 68 67 66 65 64 62 61 62 63 62 62 63 66 69 70 70 71 69 67 66 64 62 60 59 60 57 55 52 53 51 47 46 46 43 43 42 42 41 41 42
73 74 74 73 72 72 72 72 71 71 69 68 66 64 62 60 57 58 59 62 67 67 66 66 65 63 62 62 61 61 62 59 58 56 55 57 53 53 49 46 47 47 45 45 42 43 42
71 73 76 78 78 77 76 75 75 75 74 73 70 68 65 63 61 60 60 60 60 60 61 61 61 59 58 57 59 62 61 59 59 60 60 59 56 55 54 51 48 49 50 47 45 42 42
74 75 75 76 78 80 81 81 79 79 78 76 75 73 72 68 67 65 64 62 62 60 58 57 56 56 58 57 57 59 60 60 61 62 61 59 58 58 56 52 51 51 49 44 42 37 37
77 79 80 80 80 80 80 81 82 83 82 80 78 77 78 76 74 70 67 65 64 62 58 58 55 56 54 52 56 59 61 58 58 60 59 57 56 58 53 52 51 49 46 43 40 37 37
63 69 74 79 83 84 83 82 82 81 81 83 82 82 81 79 77 75 73 71 68 65 64 61 62 56 53 55 55 55 56 56 56 59 57 54 53 53 52 51 49 45 43 41 40 38 37
48 56 63 68 73 79 84 86 84 83 83 82 82 83 83 82 81 79 78 76 74 71 69 66 64 60 60 61 57 56 55 54 55 56 54 51 51 53 51 49 44 42 39 38 36 34 36
34 42 49 56 62 67 72 77 82 85 85 83 83 82 81 81 82 81 81 80 77 75 74 72 68 66 63 61 60 58 57 55 54 54 49 47 47 48 46 43 40 38 39 38 35 33 33
31 32 37 43 48 55 59 64 71 77 83 87 86 84 83 82 79 79 80 80 79 78 78 74 71 71 68 65 63 58 58 58 59 58 53 51 50 47 45 42 40 42 40 38 37 36 39
29 30 30 33 37 42 46 52 60 68 73 79 85 87 85 83 81 80 78 78 78 79 79 76 74 74 72 69 66 63 62 63 63 61 57 55 52 49 48 44 44 46 42 41 41 41 41
31 27 27 26 29 34 39 44 52 60 67 71 76 82 85 85 84 81 81 79 78 78 78 78 77 76 74 71 68 66 66 65 65 62 60 58 57 54 52 48 48 50 49 48 47 45 45
35 27 23 22 24 28 34 40 46 53 60 65 68 71 76 81 84 84 84 82 80 79 78 77 75 76 75 72 70 67 67 68 65 64 62 60 58 56 55 53 55 55 54 52 50 49 48
Wind_Direction
206 205 207 208 208 209 212 214 215 217 220 223 224 223 224 223 219 218 218 224 230 234 240 245 244 248 253 255 252 252 257 265 267 267 268 266 275 258 250 255 251 246 251 253 256 262 270
211 210 210 211 214 214 215 219 221 222 226 227 229 232 231 231 231 232 233 235 237 238 243 250 250 248 257 263 264 261 262 264 265 265 266 267 269 276 271 256 248 245 247 248 252 266 274
212 214 213 215 216 218 220 221 224 226 227 230 233 236 239 239 240 238 244 239 240 245 245 248 251 254 254 259 264 266 265 266 263 261 265 270 274 273 273 287 266 252 246 239 227 274 298
215 216 219 218 219 220 221 223 226 229 231 233 236 239 242 245 247 249 250 250 251 248 241 238 240 247 243 244 252 268 269 263 261 256 259 263 268 274 275 276 257 248 248 228 236 278 296
220 220 221 222 225 224 225 225 228 231 234 235 237 240 244 247 250 254 255 254 251 246 236 231 233 236 233 234 236 254 266 267 265 259 253 257 260 263 255 246 241 239 258 264 263 270 266
224 225 226 225 226 229 228 228 229 230 233 235 237 238 242 245 249 253 254 252 250 242 237 236 238 239 240 232 235 242 252 259 266 264 264 259 257 251 247 246 249 247 256 264 243 253 271
228 228 228 228 230 230 231 234 235 234 233 235 238 239 240 243 245 247 250 251 250 243 242 242 240 245 246 243 239 240 253 255 256 258 263 263 256 251 243 244 247 259 264 257 254 239 244
230 230 231 231 231 231 232 232 234 236 238 238 239 240 242 242 244 247 248 252 251 245 246 246 248 249 249 245 247 242 244 255 255 258 261 261 261 253 254 248 250 255 258 255 248 249 253
231 233 234 233 234 234 234 233 234 236 238 239 240 240 242 243 244 245 248 249 251 252 248 250 250 249 254 252 252 247 244 243 251 252 256 255 255 254 250 250 251 254 256 256 260 266 267
232 232 233 234 235 236 237 236 237 238 240 240 241 241 242 242 244 246 248 248 249 251 249 248 252 253 255 255 258 254 249 243 244 249 253 254 253 254 249 245 246 245 251 259 258 259 266
234 234 234 234 234 235 236 238 239 239 240 241 242 241 241 241 244 246 247 247 248 248 247 249 253 254 254 252 253 259 259 257 254 250 248 255 253 250 253 254 252 249 247 249 250 259 260
235 236 236 236 235 235 236 237 238 239 240 241 242 243 244 244 245 245 246 245 247 248 248 250 252 253 252 250 251 256 259 261 261 261 254 251 259 253 251 253 256 257 253 249 248 249 245
237 236 236 236 237 237 237 236 237 238 239 240 241 242 243 244 244 245 246 246 247 247 248 249 250 252 251 251 253 255 256 258 259 260 263 256 259 258 255 256 255 258 260 258 255 254 250
239 239 239 237 237 237 238 238 238 239 239 240 241 241 242 242 243 245 245 244 246 247 248 247 248 249 252 253 255 256 256 258 257 255 256 257 256 260 258 259 261 261 261 262 263 259 256
241 240 240 239 239 239 239 239 239 240 240 240 241 241 241 242 242 243 243 243 244 245 246 247 247 248 250 253 254 255 257 257 257 257 257 257 255 257 262 263 262 260 258 257 259 262 265
243 242 241 240 240 239 240 239 240 240 240 240 241 241 241 241 241 242 243 243 245 246 246 245 247 249 250 250 252 254 255 255 254 254 256 258 257 257 260 261 260 259 259 261 261 261 262
245 244 244 242 240 240 240 240 240 239 240 240 241 240 240 241 241 241 242 241 242 244 244 245 245 246 248 250 250 251 251 252 254 255 256 257 257 254 258 259 256 257 259 259 259 261 263
246 245 244 243 242 242 240 240 240 240 240 240 240 240 239 240 241 240 239 240 241 242 243 244 244 244 245 247 249 249 249 250 250 252 254 253 256 259 258 261 261 259 257 257 257 258 262
248 247 246 245 243 242 241 241 241 240 239 239 240 239 239 239 238 238 237 239 241 241 242 243 244 243 244 244 246 248 248 249 250 251 252 252 254 257 259 259 261 261 260 262 264 268 270
250 249 248 246 244 243 242 242 240 240 240 239 239 240 239 239 238 237 237 237 239 240 241 243 244 243 243 242 242 244 246 246 248 250 250 253 255 257 256 255 256 260 261 263 264 264 263
251 250 248 248 246 245 244 242 241 241 240 239 238 238 239 239 238 237 238 237 238 238 239 240 240 240 240 239 240 241 242 243 245 247 249 251 253 255 257 258 258 259 261 261 262 263 265
253 251 249 247 246 245 244 243 241 241 241 240 238 237 237 237 238 237 237 238 238 239 238 239 239 237 238 238 239 239 240 238 241 243 245 247 249 253 254 255 255 257 259 260 263 263 263
254 252 250 248 246 245 243 242 242 241 240 240 239 238 237 237 237 237 237 237 238 238 238 238 239 238 237 236 236 239 241 241 239 242 243 244 247 250 252 252 253 256 259 259 259 258 256
260 256 252 250 247 245 243 241 240 239 239 238 238 238 238 238 236 236 235 235 237 236 237 237 238 237 236 237 236 237 238 239 240 242 243 243 243 248 248 251 256 256 255 253 251 252 254
274 262 257 253 250 247 244 241 238 237 237 236 236 237 237 236 236 235 235 236 236 236 237 236 236 237 236 237 238 238 240 242 243 244 243 242 241 243 247 248 249 251 250 249 251 252 254
295 279 265 257 252 249 245 239 236 234 233 234 235 235 235 235 235 235 234 234 234 235 236 236 235 237 236 236 238 238 240 241 242 244 244 244 243 242 244 246 244 247 249 251 251 252 253
310 295 280 263 254 246 241 235 232 230 231 230 231 232 233 233 234 234 234 233 233 233 234 233 233 235 235 235 236 237 237 238 242 244 244 245 246 247 246 244 246 248 248 249 251 254 253
325 309 291 274 258 245 237 230 228 226 227 228 228 229 231 232 232 232 233 233 232 232 233 232 231 233 234 235 235 235 238 238 239 241 242 244 245 246 249 250 250 248 247 248 248 252 255
336 327 305 283 265 248 237 230 227 225 225 227 228 228 229 229 230 230 230 231 232 232 232 232 231 232 232 233 233 234 237 238 239 241 243 244 246 247 247 248 250 253 254 255 254 254 255
Height
10924 10929 10935 10940 10946 10950 10955 10959 10964 10969 10973 10977 10981 10985 10988 10992 10995 10998 11001 11004 11006 11008 11009 11010 11012 11014 11015 11016 11017 11018 11020 11022 11023 11024 11025 11025 11025 11025 11025 11026 11029 11030 11034 11035 11036 11037 11039
10919 10924 10929 10935 10940 10945 10950 10955 10959 10964 10968 10973 10977 10981 10984 10988 10992 10995 10997 11001 11003 11004 11006 11007 11008 11011 11012 11013 11012 11015 11017 11018 11019 11020 11021 11022 11025 11024 11024 11024 11026 11028 11030 11032 11034 11036 11038
10913 10919 10923 10929 10934 10940 10945 10949 10953 10958 10963 10967 10972 10976 10980 10983 10987 10990 10993 10996 10999 11000 11003 11004 11005 11007 11009 11010 11009 11010 11014 11015 11016 11017 11018 11018 11020 11022 11022 11023 11024 11026 11029 11031 11032 11034 11036
10907 10912 10918 10922 10927 10933 10938 10943 10947 10951 10956 10962 10966 10971 10974 10977 10981 10984 10987 10990 10994 10996 10998 11000 11002 11003 11005 11007 11008 11007 11010 11012 11014 11015 11015 11016 11017 11019 11021 11022 11023 11024 11026 11030 11032 11033 11034
10899 10904 10909 10915 10921 10925 10930 10936 10941 10945 10950 10954 10959 10963 10968 10971 10974 10977 10980 10984 10987 10990 10993 10996 10998 10999 11001 11005 11006 11006 11007 11008 11010 11012 11014 11014 11015 11018 11019 11021 11021 11022 11025 11027 11030 11032 11032
10889 10896 10901 10906 10911 10917 10921 10926 10932 10937 10942 10947 10952 10956 10960 10964 10968 10971 10973 10976 10980 10984 10987 10991 10994 10996 10999 11002 11004 11005 11004 11005 11006 11007 11010 11012 11013 11014 11016 11018 11020 11022 11024 11027 11028 11029 11029
10879 10884 10890 10896 10902 10907 10912 10918 10922 10928 10933 10938 10942 10948 10953 10958 10961 10964 10966 10969 10973 10977 10982 10985 10989 10993 10995 10997 11000 11002 11002 11004 11004 11005 11007 11008 11010 11012 11013 11014 11016 11018 11021 11023 11025 11027 11027
10868 10873 10879 10884 10890 10896 10901 10907 10912 10917 10923 10928 10934 10938 10944 10950 10953 10956 10957 10960 10965 10971 10975 10978 10982 10986 10989 10992 10993 10997 11000 11000 11001 11004 11005 11005 11006 11009 11009 11012 11014 11016 11016 11018 11020 11022 11023
10856 10861 10867 10872 10878 10884 10889 10895 10900 10906 10911 10917 10923 10929 10934 10940 10944 10946 10948 10953 10958 10963 10967 10970 10975 10980 10982 10985 10987 10991 10995 10997 10996 10999 11001 11001 11003 11004 11006 11008 11009 11009 11012 11014 11015 11017 11018
10842 10847 10852 10858 10865 10870 10876 10882 10888 10894 10899 10904 10910 10917 10923 10929 10933 10935 10938 10944 10950 10954 10958 10962 10966 10972 10975 10978 10981 10983 10987 10991 10993 10996 10996 10996 11000 11000 11001 11003 11003 11006 11009 11011 11012 11013 11014
10830 10834 10838 10844 10850 10856 10862 10868 10874 10880 10886 10891 10897 10904 10910 10918 10921 10924 10928 10934 10940 10943 10949 10955 10959 10962 10965 10971 10973 10976 10979 10982 10985 10989 10992 10992 10993 10996 10997 10998 11000 11003 11006 11007 11007 11007 11009
10817 10821 10825 10829 10834 10841 10847 10853 10859 10865 10871 10877 10884 10891 10897 10905 10909 10913 10917 10924 10929 10933 10940 10944 10949 10952 10956 10961 10966 10968 10972 10974 10978 10978 10983 10985 10985 10989 10991 10992 10995 10996 10999 11000 11000 11001 11005
10802 10806 10811 10815 10820 10825 10831 10837 10843 10849 10855 10862 10868 10875 10883 10890 10895 10900 10906 10913 10918 10924 10928 10935 10939 10941 10945 10951 10956 10961 10964 10966 10971 10970 10970 10979 10977 10978 10983 10985 10989 10989 10991 10994 10994 10995 10998
10788 10792 10796 10801 10805 10810 10814 10820 10826 10833 10839 10846 10851 10858 10867 10875 10880 10884 10892 10901 10909 10911 10916 10924 10927 10931 10934 10940 10946 10950 10955 10958 10961 10962 10961 10968 10970 10969 10974 10977 10983 10983 10984 10986 10987 10989 10991
10773 10777 10781 10786 10791 10794 10798 10803 10809 10816 10821 10829 10833 10842 10852 10857 10864 10869 10877 10888 10893 10896 10903 10909 10915 10919 10924 10930 10934 10937 10943 10945 10950 10952 10955 10958 10962 10962 10964 10971 10974 10974 10976 10977 10980 10981 10982
10757 10760 10765 10770 10775 10779 10783 10788 10793 10799 10804 10811 10816 10826 10835 10838 10847 10855 10864 10874 10877 10881 10887 10893 10901 10907 10911 10918 10923 10927 10931 10935 10937 10941 10944 10950 10954 10956 10957 10961 10965 10965 10968 10970 10972 10974 10975
10739 10743 10747 10752 10758 10762 10767 10772 10778 10783 10788 10794 10800 10809 10816 10821 10831 10842 10852 10855 10857 10862 10869 10877 10886 10893 10898 10905 10910 10915 10921 10921 10926 10931 10936 10938 10942 10948 10946 10951 10954 10957 10959 10962 10963 10964 10965
10720 10724 10728 10733 10738 10743 10750 10755 10761 10766 10772 10778 10785 10793 10799 10806 10817 10825 10831 10835 10839 10845 10853 10860 10869 10879 10885 10891 10897 10901 10906 10908 10915 10918 10923 10924 10929 10936 10939 10939 10944 10947 10949 10951 10953 10956 10956
10699 10703 10707 10712 10718 10724 10729 10736 10742 10748 10755 10762 10769 10776 10784 10792 10802 10807 10814 10818 10822 10829 10838 10845 10854 10864 10872 10879 10883 10885 10890 10897 10901 10907 10910 10911 10919 10921 10928 10933 10933 10934 10937 10940 10946 10947 10951
10676 10680 10684 10689 10696 10702 10708 10715 10722 10728 10735 10744 10752 10759 10769 10776 10784 10790 10796 10803 10808 10816 10823 10831 10840 10849 10857 10864 10869 10871 10876 10884 10888 10891 10895 10899 10907 10910 10913 10917 10922 10924 10925 10929 10933 10936 10937
10652 10656 10661 10665 10671 10678 10684 10692 10700 10706 10715 10724 10733 10743 10749 10759 10765 10772 10780 10789 10794 10802 10810 10817 10825 10833 10839 10847 10852 10855 10862 10869 10873 10876 10882 10889 10893 10895 10899 10904 10909 10910 10914 10918 10921 10925 10926
10626 10630 10634 10639 10645 10652 10659 10666 10675 10683 10692 10702 10713 10721 10728 10737 10745 10755 10765 10773 10780 10787 10798 10804 10811 10816 10824 10834 10837 10838 10843 10854 10858 10863 10869 10876 10880 10880 10887 10891 10895 10899 10904 10908 10911 10914 10915
10602 10603 10607 10612 10617 10624 10632 10641 10650 10658 10668 10677 10687 10697 10707 10718 10728 10737 10747 10755 10763 10774 10780 10789 10793 10806 10815 10817 10821 10827 10833 10841 10847 10849 10856 10865 10869 10870 10874 10877 10885 10891 10895 10898 10900 10902 10903
10581 10581 10582 10585 10590 10595 10603 10613 10623 10633 10643 10654 10663 10673 10685 10697 10708 10719 10726 10734 10744 10755 10763 10773 10780 10791 10797 10800 10810 10815 10820 10827 10831 10837 10846 10854 10858 10857 10864 10871 10877 10880 10884 10887 10888 10891 10891
10565 10562 10561 10562 10565 10569 10576 10584 10595 10607 10617 10629 10639 10650 10662 10673 10685 10697 10706 10714 10727 10735 10745 10756 10766 10773 10782 10789 10796 10804 10809 10816 10823 10827 10835 10841 10847 10850 10855 10862 10867 10871 10873 10875 10878 10882 10883
10552 10546 10543 10542 10543 10546 10551 10559 10568 10579 10591 10603 10615 10627 10639 10650 10663 10675 10685 10695 10706 10716 10725 10739 10751 10755 10766 10775 10782 10794 10800 10805 10808 10814 10822 10828 10834 10841 10848 10852 10857 10858 10863 10867 10870 10873 10872
10541 10533 10528 10525 10525 10527 10531 10538 10545 10555 10566 10578 10591 10603 10616 10630 10642 10654 10665 10675 10687 10696 10705 10720 10733 10738 10748 10760 10770 10777 10784 10788 10793 10802 10809 10816 10823 10830 10835 10843 10847 10847 10853 10855 10858 10859 10860
10531 10522 10516 10512 10511 10512 10516 10521 10527 10535 10544 10555 10568 10581 10594 10607 10620 10634 10644 10656 10667 10676 10686 10700 10711 10721 10731 10743 10755 10763 10768 10775 10780 10788 10796 10803 10810 10818 10823 10831 10836 10835 10838 10841 10844 10848 10850
10523 10513 10506 10501 10499 10500 10503 10508 10513 10520 10529 10539 10550 10561 10573 10586 10599 10613 10623 10634 10648 10657 10667 10679 10695 10704 10715 10726 10738 10748 10753 10759 10768 10775 10784 10790 10798 10804 10810 10816 10817 10819 10825 10829 10834 10839 10841